TimeCST,TemperatureF,Dew PointF,Humidity,Sea Level PressureIn,VisibilityMPH,Wind Direction,Wind SpeedMPH,Gust SpeedMPH,PrecipitationIn,Events,Conditions,WindDirDegrees,DateUTC
12:53 AM,28.9,17.1,61,29.96,10.0,WSW,4.6,16.1,N/A,,Clear,250,2011-11-16 06:53:00
1:53 AM,26.1,15.1,63,29.98,10.0,WSW,5.8,-,N/A,,Clear,250,2011-11-16 07:53:00
2:53 AM,26.1,14.0,60,29.99,10.0,WSW,5.8,-,N/A,,Mostly Cloudy,250,2011-11-16 08:53:00
3:53 AM,23.0,14.0,68,29.99,10.0,SSW,6.9,-,N/A,,Partly Cloudy,210,2011-11-16 09:53:00
4:53 AM,23.0,14.0,68,30.01,10.0,SW,5.8,-,N/A,,Clear,230,2011-11-16 10:53:00
6:53 AM,26.1,16.0,66,30.06,10.0,WNW,10.4,-,N/A,,Clear,290,2011-11-16 12:53:00
7:53 AM,27.0,16.0,63,30.08,10.0,West,9.2,17.3,N/A,,Clear,280,2011-11-16 13:53:00
8:53 AM,28.0,16.0,61,30.10,10.0,WSW,8.1,-,N/A,,Clear,240,2011-11-16 14:53:00
10:53 AM,33.1,15.1,48,30.09,10.0,SW,15.0,18.4,N/A,,Clear,220,2011-11-16 16:53:00
11:53 AM,36.0,16.0,44,30.08,10.0,West,16.1,25.3,N/A,,Clear,270,2011-11-16 17:53:00
12:53 PM,36.0,16.0,44,30.07,10.0,West,19.6,27.6,N/A,,Scattered Clouds,270,2011-11-16 18:53:00
1:53 PM,37.0,15.1,41,30.07,10.0,West,18.4,23.0,N/A,,Mostly Cloudy,280,2011-11-16 19:53:00
3:53 PM,32.0,12.9,45,30.12,10.0,WNW,23.0,29.9,N/A,,Overcast,300,2011-11-16 21:53:00
4:53 PM,30.0,10.9,45,30.14,10.0,WNW,16.1,28.8,N/A,,Partly Cloudy,290,2011-11-16 22:53:00
5:53 PM,28.9,12.0,49,30.16,10.0,West,13.8,24.2,N/A,,Scattered Clouds,280,2011-11-16 23:53:00
6:53 PM,28.0,10.9,49,30.17,10.0,WNW,13.8,24.2,N/A,,Clear,290,2011-11-17 00:53:00
7:53 PM,27.0,10.9,51,30.17,10.0,WNW,11.5,-,N/A,,Mostly Cloudy,290,2011-11-17 01:53:00
8:53 PM,28.0,10.9,49,30.17,10.0,WNW,15.0,19.6,N/A,,Overcast,290,2011-11-17 02:53:00
9:53 PM,27.0,12.0,53,30.16,10.0,WNW,12.7,-,N/A,,Overcast,300,2011-11-17 03:53:00
10:53 PM,26.1,10.0,51,30.15,10.0,WNW,13.8,21.9,N/A,,Clear,300,2011-11-17 04:53:00
11:53 PM,24.1,10.9,57,30.16,10.0,West,10.4,-,N/A,,Clear,280,2011-11-17 05:53:00